Time,TemperatureF,DewpointF,PressureIn,WindDirection,WindDirectionDegrees,WindSpeedMPH,WindSpeedGustMPH,Humidity,HourlyPrecipIn,Conditions,Clouds,dailyrainin,SoftwareType,DateUTC
2013-09-11 12:05:00,81.3,70.8,29.79,SW,225,5.8,5.8,70,0.00,,,0.00,WUHU21623XXSP,2013-09-11 16:05:00,
2013-09-11 12:06:00,81.3,70.8,29.79,SW,225,5.8,5.8,70,0.00,,,0.00,WUHU21623XXSP,2013-09-11 16:06:00,
2013-09-11 12:11:00,81.3,70.0,29.79,West,270,2.5,5.8,68,0.00,,,0.00,WUHU21623XXSP,2013-09-11 16:11:00,
2013-09-11 12:16:00,80.7,68.5,29.79,WNW,292,3.8,3.8,66,0.00,,,0.00,WUHU21623XXSP,2013-09-11 16:16:00,
2013-09-11 12:21:00,80.7,68.5,29.79,WSW,247,6.3,6.3,66,0.00,,,0.00,WUHU21623XXSP,2013-09-11 16:21:00,
2013-09-11 12:26:00,80.5,68.3,29.79,NNW,337,4.0,6.3,66,0.00,,,0.00,WUHU21623XXSP,2013-09-11 16:26:00,
2013-09-11 12:31:00,80.5,68.3,29.78,SSE,157,0.0,4.0,66,0.00,,,0.00,WUHU21623XXSP,2013-09-11 16:31:00,
2013-09-11 12:36:00,80.5,68.8,29.77,WSW,247,0.0,0.0,67,0.00,,,0.00,WUHU21623XXSP,2013-09-11 16:36:00,
2013-09-11 12:42:00,81.3,69.1,29.78,SW,225,2.5,2.5,66,0.00,,,0.00,WUHU21623XXSP,2013-09-11 16:42:00,
2013-09-11 12:50:00,82.0,68.9,29.77,WNW,292,4.0,4.0,64,0.00,,,0.00,WUHU21623XXSP,2013-09-11 16:50:00,
2013-09-11 12:55:00,82.2,69.1,29.78,NNW,337,4.7,4.7,64,0.00,,,0.00,WUHU21623XXSP,2013-09-11 16:55:00,
2013-09-11 13:00:00,82.0,67.5,29.78,NNW,337,4.7,4.7,61,0.00,,,0.00,WUHU21623XXSP,2013-09-11 17:00:00,
2013-09-11 13:10:00,82.3,67.3,29.78,WNW,292,6.9,6.9,60,0.00,,,0.00,WUHU21623XXSP,2013-09-11 17:10:00,
2013-09-11 13:15:00,82.5,67.0,29.78,WSW,247,4.7,6.9,59,0.00,,,0.00,WUHU21623XXSP,2013-09-11 17:15:00,
2013-09-11 13:20:00,82.5,67.0,29.78,NW,315,7.2,7.2,59,0.00,,,0.00,WUHU21623XXSP,2013-09-11 17:20:00,
2013-09-11 13:25:00,82.5,66.5,29.79,NNW,337,3.8,7.2,58,0.00,,,0.00,WUHU21623XXSP,2013-09-11 17:25:00,
2013-09-11 13:31:00,82.5,66.5,29.79,North,0,7.2,7.2,58,0.00,,,0.00,WUHU21623XXSP,2013-09-11 17:31:00,
2013-09-11 13:36:00,82.5,66.5,29.78,NW,315,10.3,10.3,58,0.00,,,0.00,WUHU21623XXSP,2013-09-11 17:36:00,
2013-09-11 13:41:00,82.5,66.0,29.78,West,270,1.8,10.3,57,0.00,,,0.00,WUHU21623XXSP,2013-09-11 17:41:00,
2013-09-11 13:46:00,82.5,66.5,29.77,WSW,247,5.4,5.4,58,0.00,,,0.00,WUHU21623XXSP,2013-09-11 17:46:00,
2013-09-11 13:51:00,82.9,66.8,29.77,SW,225,0.0,5.4,58,0.00,,,0.00,WUHU21623XXSP,2013-09-11 17:51:00,
2013-09-11 13:56:00,83.4,66.8,29.77,SSW,202,9.2,9.2,57,0.00,,,0.00,WUHU21623XXSP,2013-09-11 17:56:00,
2013-09-11 14:01:00,83.4,66.8,29.77,West,270,4.3,9.2,57,0.00,,,0.00,WUHU21623XXSP,2013-09-11 18:01:00,
2013-09-11 14:06:00,83.4,67.3,29.76,SSW,202,5.6,5.6,58,0.00,,,0.00,WUHU21623XXSP,2013-09-11 18:06:00,
2013-09-11 14:14:00,83.2,66.6,29.76,West,270,0.0,5.6,57,0.00,,,0.00,WUHU21623XXSP,2013-09-11 18:14:00,
2013-09-11 14:19:00,83.4,66.8,29.76,SSW,202,6.3,6.3,57,0.00,,,0.00,WUHU21623XXSP,2013-09-11 18:19:00,
2013-09-11 14:24:00,83.4,66.8,29.76,SSW,202,6.3,6.3,57,0.00,,,0.00,WUHU21623XXSP,2013-09-11 18:24:00,
2013-09-11 14:31:00,83.2,67.6,29.76,SSW,202,0.0,0.0,59,0.00,,,0.00,WUHU21623XXSP,2013-09-11 18:31:00,
2013-09-11 14:36:00,83.4,67.8,29.76,NW,315,2.2,2.2,59,0.00,,,0.00,WUHU21623XXSP,2013-09-11 18:36:00,
2013-09-11 14:44:00,83.2,67.6,29.75,SW,225,3.6,3.6,59,0.00,,,0.00,WUHU21623XXSP,2013-09-11 18:44:00,
2013-09-11 14:52:00,83.2,67.1,29.75,SSW,202,4.5,4.5,58,0.00,,,0.00,WUHU21623XXSP,2013-09-11 18:52:00,
2013-09-11 14:57:00,83.2,67.1,29.75,South,180,4.5,4.5,58,0.00,,,0.00,WUHU21623XXSP,2013-09-11 18:57:00,
2013-09-11 15:04:00,83.4,67.3,29.75,SSW,202,7.8,7.8,58,0.00,,,0.00,WUHU21623XXSP,2013-09-11 19:04:00,
2013-09-11 15:09:00,83.6,68.0,29.75,WSW,247,3.6,7.8,59,0.00,,,0.00,WUHU21623XXSP,2013-09-11 19:09:00,
2013-09-11 15:14:00,83.8,67.7,29.76,NW,315,6.3,6.3,58,0.00,,,0.00,WUHU21623XXSP,2013-09-11 19:14:00,
2013-09-11 15:19:00,84.0,68.9,29.76,SW,225,5.1,6.3,60,0.00,,,0.00,WUHU21623XXSP,2013-09-11 19:19:00,
2013-09-11 15:28:00,84.3,68.7,29.75,SSW,202,2.7,2.7,59,0.00,,,0.00,WUHU21623XXSP,2013-09-11 19:28:00,
2013-09-11 15:33:00,84.3,68.7,29.76,NW,315,0.0,2.7,59,0.00,,,0.00,WUHU21623XXSP,2013-09-11 19:33:00,
2013-09-11 15:38:00,84.3,68.7,29.76,WSW,247,2.9,2.9,59,0.00,,,0.00,WUHU21623XXSP,2013-09-11 19:38:00,
2013-09-11 15:43:00,83.4,67.8,29.75,West,270,1.6,2.9,59,0.00,,,0.00,WUHU21623XXSP,2013-09-11 19:43:00,
2013-09-11 15:50:00,83.4,67.8,29.75,SSW,202,3.8,3.8,59,0.00,,,0.00,WUHU21623XXSP,2013-09-11 19:50:00,
2013-09-11 15:56:00,83.2,67.6,29.75,West,270,2.2,3.8,59,0.00,,,0.00,WUHU21623XXSP,2013-09-11 19:56:00,
2013-09-11 16:01:00,83.2,67.6,29.75,WSW,247,0.0,2.2,59,0.00,,,0.00,WUHU21623XXSP,2013-09-11 20:01:00,
2013-09-11 16:06:00,83.4,67.8,29.75,SW,225,8.7,8.7,59,0.00,,,0.00,WUHU21623XXSP,2013-09-11 20:06:00,
2013-09-11 16:11:00,83.8,68.2,29.74,SSW,202,4.3,8.7,59,0.00,,,0.00,WUHU21623XXSP,2013-09-11 20:11:00,
2013-09-11 16:17:00,84.3,68.7,29.74,South,180,3.1,4.3,59,0.00,,,0.00,WUHU21623XXSP,2013-09-11 20:17:00,
2013-09-11 16:22:00,84.3,68.2,29.74,South,180,2.9,3.1,58,0.00,,,0.00,WUHU21623XXSP,2013-09-11 20:22:00,
2013-09-11 16:27:00,84.1,68.0,29.74,WNW,292,3.0,3.0,58,0.00,,,0.00,WUHU21623XXSP,2013-09-11 20:27:00,
2013-09-11 16:33:00,84.1,68.0,29.74,SSW,202,3.0,3.0,58,0.00,,,0.00,WUHU21623XXSP,2013-09-11 20:33:00,
2013-09-11 16:38:00,84.1,67.5,29.74,NNE,22,2.0,6.9,57,0.00,,,0.00,WUHU21623XXSP,2013-09-11 20:38:00,
2013-09-11 16:47:00,83.8,67.2,29.74,SW,225,7.8,7.8,57,0.00,,,0.00,WUHU21623XXSP,2013-09-11 20:47:00,
2013-09-11 16:52:00,83.6,67.0,29.74,West,270,8.5,8.5,57,0.00,,,0.00,WUHU21623XXSP,2013-09-11 20:52:00,
2013-09-11 16:58:00,83.2,67.1,29.73,SW,225,1.1,8.5,58,0.00,,,0.00,WUHU21623XXSP,2013-09-11 20:58:00,
2013-09-11 17:03:00,82.9,66.8,29.73,South,180,6.0,8.5,58,0.00,,,0.00,WUHU21623XXSP,2013-09-11 21:03:00,
2013-09-11 17:08:00,82.9,66.8,29.73,West,270,2.7,6.0,58,0.00,,,0.00,WUHU21623XXSP,2013-09-11 21:08:00,
2013-09-11 17:13:00,83.1,67.0,29.73,SSW,202,5.6,5.6,58,0.00,,,0.00,WUHU21623XXSP,2013-09-11 21:13:00,
2013-09-11 17:18:00,83.1,67.0,29.73,WNW,292,0.0,5.6,58,0.00,,,0.00,WUHU21623XXSP,2013-09-11 21:18:00,
2013-09-11 17:23:00,82.9,66.8,29.73,WNW,292,0.0,0.0,58,0.00,,,0.00,WUHU21623XXSP,2013-09-11 21:23:00,
2013-09-11 17:28:00,82.9,66.8,29.73,WSW,247,4.3,4.3,58,0.00,,,0.00,WUHU21623XXSP,2013-09-11 21:28:00,
2013-09-11 17:33:00,82.9,66.8,29.73,SW,225,5.4,5.4,58,0.00,,,0.00,WUHU21623XXSP,2013-09-11 21:33:00,
2013-09-11 17:38:00,82.5,66.5,29.73,West,270,4.3,7.4,58,0.00,,,0.00,WUHU21623XXSP,2013-09-11 21:38:00,
2013-09-11 17:43:00,82.5,66.5,29.73,SW,225,0.0,7.4,58,0.00,,,0.00,WUHU21623XXSP,2013-09-11 21:43:00,
2013-09-11 17:48:00,82.5,66.5,29.73,West,270,2.0,2.0,58,0.00,,,0.00,WUHU21623XXSP,2013-09-11 21:48:00,
2013-09-11 17:58:00,82.0,66.0,29.73,WSW,247,6.3,6.3,58,0.00,,,0.00,WUHU21623XXSP,2013-09-11 21:58:00,
2013-09-11 18:03:00,82.0,66.0,29.73,South,180,0.0,6.3,58,0.00,,,0.00,WUHU21623XXSP,2013-09-11 22:03:00,
2013-09-11 18:11:00,81.6,65.6,29.73,WSW,247,2.0,2.0,58,0.00,,,0.00,WUHU21623XXSP,2013-09-11 22:11:00,
2013-09-11 18:17:00,81.1,64.6,29.72,NW,315,0.0,2.0,57,0.00,,,0.00,WUHU21623XXSP,2013-09-11 22:17:00,
2013-09-11 18:22:00,80.7,64.8,29.72,North,0,0.0,0.0,58,0.00,,,0.00,WUHU21623XXSP,2013-09-11 22:22:00,
2013-09-11 18:27:00,80.5,64.6,29.72,NW,315,4.9,4.9,58,0.00,,,0.00,WUHU21623XXSP,2013-09-11 22:27:00,
2013-09-11 18:32:00,80.0,64.6,29.72,WSW,247,0.0,4.9,59,0.00,,,0.00,WUHU21623XXSP,2013-09-11 22:32:00,
2013-09-11 18:39:00,79.8,64.4,29.73,SW,225,0.0,0.0,59,0.00,,,0.00,WUHU21623XXSP,2013-09-11 22:39:00,
2013-09-11 18:44:00,79.6,64.2,29.73,SW,225,0.0,0.0,59,0.00,,,0.00,WUHU21623XXSP,2013-09-11 22:44:00,
2013-09-11 18:49:00,79.6,64.2,29.73,NNW,337,1.1,1.1,59,0.00,,,0.00,WUHU21623XXSP,2013-09-11 22:49:00,
2013-09-11 18:54:00,79.6,64.2,29.73,West,270,1.8,1.8,59,0.00,,,0.00,WUHU21623XXSP,2013-09-11 22:54:00,
2013-09-11 18:59:00,79.3,64.0,29.73,WNW,292,4.3,4.3,59,0.00,,,0.00,WUHU21623XXSP,2013-09-11 22:59:00,
2013-09-11 19:04:00,78.9,63.6,29.74,SW,225,0.0,4.3,59,0.00,,,0.00,WUHU21623XXSP,2013-09-11 23:04:00,
2013-09-11 19:09:00,78.7,63.4,29.73,South,180,3.1,3.1,59,0.00,,,0.00,WUHU21623XXSP,2013-09-11 23:09:00,
2013-09-11 19:14:00,78.4,63.1,29.73,West,270,1.3,3.1,59,0.00,,,0.00,WUHU21623XXSP,2013-09-11 23:14:00,
2013-09-11 19:20:00,78.0,63.2,29.73,WNW,292,0.0,1.3,60,0.00,,,0.00,WUHU21623XXSP,2013-09-11 23:20:00,
2013-09-11 19:26:00,77.7,62.9,29.73,WSW,247,1.3,1.3,60,0.00,,,0.00,WUHU21623XXSP,2013-09-11 23:26:00,
2013-09-11 19:31:00,77.5,62.7,29.73,WSW,247,0.0,1.3,60,0.00,,,0.00,WUHU21623XXSP,2013-09-11 23:31:00,
2013-09-11 19:36:00,77.1,62.8,29.73,WNW,292,1.6,1.6,61,0.00,,,0.00,WUHU21623XXSP,2013-09-11 23:36:00,
2013-09-11 19:41:00,77.1,62.8,29.73,WSW,247,0.0,1.6,61,0.00,,,0.00,WUHU21623XXSP,2013-09-11 23:41:00,
2013-09-11 19:46:00,76.9,63.1,29.73,South,180,2.0,2.0,62,0.00,,,0.00,WUHU21623XXSP,2013-09-11 23:46:00,
2013-09-11 19:51:00,76.6,62.8,29.73,SSW,202,0.0,2.0,62,0.00,,,0.00,WUHU21623XXSP,2013-09-11 23:51:00,
2013-09-11 19:58:00,76.2,62.9,29.74,WNW,292,0.0,1.6,63,0.00,,,0.00,WUHU21623XXSP,2013-09-11 23:58:00,
2013-09-11 20:03:00,76.0,62.7,29.73,SW,225,2.7,2.7,63,0.00,,,0.00,WUHU21623XXSP,2013-09-12 00:03:00,
2013-09-11 20:09:00,75.7,62.9,29.74,SW,225,1.1,2.7,64,0.00,,,0.00,WUHU21623XXSP,2013-09-12 00:09:00,
2013-09-11 20:20:00,75.3,62.5,29.74,WSW,247,3.6,3.6,64,0.00,,,0.00,WUHU21623XXSP,2013-09-12 00:20:00,
2013-09-11 20:25:00,75.3,62.5,29.74,South,180,2.7,3.6,64,0.00,,,0.00,WUHU21623XXSP,2013-09-12 00:25:00,
2013-09-11 20:30:00,75.1,62.3,29.74,South,180,0.0,2.7,64,0.00,,,0.00,WUHU21623XXSP,2013-09-12 00:30:00,
2013-09-11 20:35:00,75.1,62.7,29.74,SW,225,0.0,0.0,65,0.00,,,0.00,WUHU21623XXSP,2013-09-12 00:35:00,
2013-09-11 20:40:00,74.8,62.5,29.74,WSW,247,0.0,0.0,65,0.00,,,0.00,WUHU21623XXSP,2013-09-12 00:40:00,
2013-09-11 20:45:00,74.8,62.9,29.74,WSW,247,0.0,0.0,66,0.00,,,0.00,WUHU21623XXSP,2013-09-12 00:45:00,
2013-09-11 20:50:00,74.6,62.7,29.74,WSW,247,0.0,0.0,66,0.00,,,0.00,WUHU21623XXSP,2013-09-12 00:50:00,
2013-09-11 20:56:00,74.4,62.5,29.74,SW,225,0.0,0.0,66,0.00,,,0.00,WUHU21623XXSP,2013-09-12 00:56:00,
2013-09-11 21:01:00,74.2,62.7,29.74,SW,225,0.0,0.0,67,0.00,,,0.00,WUHU21623XXSP,2013-09-12 01:01:00,
2013-09-11 21:06:00,74.1,62.7,29.74,South,180,4.0,4.0,67,0.00,,,0.00,WUHU21623XXSP,2013-09-12 01:06:00,
2013-09-11 21:11:00,73.9,62.5,29.74,SSW,202,2.7,4.0,67,0.00,,,0.00,WUHU21623XXSP,2013-09-12 01:11:00,
2013-09-11 21:16:00,73.9,62.5,29.74,SSW,202,1.1,2.7,67,0.00,,,0.00,WUHU21623XXSP,2013-09-12 01:16:00,
2013-09-11 21:22:00,73.3,62.3,29.74,SSW,202,0.0,1.1,68,0.00,,,0.00,WUHU21623XXSP,2013-09-12 01:22:00,
2013-09-11 21:27:00,73.2,62.2,29.74,SSW,202,2.5,2.5,68,0.00,,,0.00,WUHU21623XXSP,2013-09-12 01:27:00,
2013-09-11 21:32:00,72.8,61.8,29.74,SSW,202,2.5,2.5,68,0.00,,,0.00,WUHU21623XXSP,2013-09-12 01:32:00,
2013-09-11 21:36:00,72.6,62.0,29.74,SSW,202,0.0,2.5,69,0.00,,,0.00,WUHU21623XXSP,2013-09-12 01:36:00,
2013-09-11 21:42:00,72.4,61.8,29.75,SSW,202,0.0,0.0,69,0.00,,,0.00,WUHU21623XXSP,2013-09-12 01:42:00,
2013-09-11 21:46:00,72.1,62.0,29.75,SSW,202,1.1,1.1,70,0.00,,,0.00,WUHU21623XXSP,2013-09-12 01:46:00,
2013-09-11 21:52:00,71.9,61.8,29.75,SSW,202,1.1,1.1,70,0.00,,,0.00,WUHU21623XXSP,2013-09-12 01:52:00,
2013-09-11 22:00:00,71.7,62.0,29.75,SSW,202,0.0,0.0,71,0.00,,,0.00,WUHU21623XXSP,2013-09-12 02:00:00,
2013-09-11 22:05:00,71.5,61.8,29.75,SSW,202,0.0,0.0,71,0.00,,,0.00,WUHU21623XXSP,2013-09-12 02:05:00,
2013-09-11 22:10:00,71.5,61.8,29.75,SSW,202,0.0,0.0,71,0.00,,,0.00,WUHU21623XXSP,2013-09-12 02:10:00,
2013-09-11 22:15:00,71.2,61.9,29.74,SSW,202,0.0,0.0,72,0.00,,,0.00,WUHU21623XXSP,2013-09-12 02:15:00,
2013-09-11 22:20:00,71.0,61.7,29.75,SSW,202,0.0,0.0,72,0.00,,,0.00,WUHU21623XXSP,2013-09-12 02:20:00,
2013-09-11 22:26:00,70.6,61.3,29.75,SSW,202,0.0,0.0,72,0.00,,,0.00,WUHU21623XXSP,2013-09-12 02:26:00,
2013-09-11 22:31:00,70.3,61.4,29.75,SSW,202,0.0,0.0,73,0.00,,,0.00,WUHU21623XXSP,2013-09-12 02:31:00,
2013-09-11 22:36:00,70.3,61.4,29.75,SSW,202,0.0,0.0,73,0.00,,,0.00,WUHU21623XXSP,2013-09-12 02:36:00,
2013-09-11 22:41:00,69.9,61.4,29.74,SSW,202,0.0,0.0,74,0.00,,,0.00,WUHU21623XXSP,2013-09-12 02:41:00,
2013-09-11 22:47:00,69.7,61.6,29.74,South,180,5.6,5.6,75,0.00,,,0.00,WUHU21623XXSP,2013-09-12 02:47:00,
2013-09-11 22:52:00,69.4,61.3,29.75,South,180,0.9,5.6,75,0.00,,,0.00,WUHU21623XXSP,2013-09-12 02:52:00,
2013-09-11 23:00:00,69.0,60.9,29.74,South,180,0.0,0.9,75,0.00,,,0.00,WUHU21623XXSP,2013-09-12 03:00:00,
2013-09-11 23:05:00,69.0,60.9,29.74,South,180,0.0,0.0,75,0.00,,,0.00,WUHU21623XXSP,2013-09-12 03:05:00,
2013-09-11 23:10:00,68.8,61.0,29.75,South,180,0.0,0.0,76,0.00,,,0.00,WUHU21623XXSP,2013-09-12 03:10:00,
2013-09-11 23:15:00,68.7,61.3,29.74,South,180,0.0,0.0,77,0.00,,,0.00,WUHU21623XXSP,2013-09-12 03:15:00,
2013-09-11 23:38:00,67.9,60.9,29.75,SSW,203,0.0,0.0,78,0.00,,,0.00,WUHU21623XXSP,2013-09-12 03:38:00,